Ames, IA

6:16 AM CDT on May 26, 2017 (GMT -0500)
Ames Municipal

Weather History for KAMW - December, 2010

Change the Weather History Date:

Friday, December 17, 2010

  Actual Average Record
Temperature  
Mean Temperature 11 °F 22 °F  
Max Temperature 22 °F 31 °F 44 °F (2001)
Min Temperature 0 °F 14 °F -7 °F (2016)
Degree Days  
Heating Degree Days 54 43  
Month to date heating degree days 779 682  
Since 1 July heating degree days 2030 2136  
Cooling Degree Days 0 0  
Month to date cooling degree days 0 0  
Year to date cooling degree days 980 752  
Moisture  
Dew Point 8 °F    
Average Humidity 82    
Maximum Humidity 95    
Minimum Humidity 68    
Precipitation  
Precipitation 0.00 in 0.03 in 0.29 in (1985)
Month to date precipitation 0.11 0.76  
Sea Level Pressure  
Sea Level Pressure 30.18 in    
Wind  
Wind Speed 9 mph (West)    
Max Wind Speed 18 mph    
Max Gust Speed 23 mph    
Visibility 6 miles    
Events      
T = Trace of Precipitation, MM = Missing Value Source: NWS Daily Summary

Daily Weather History Graph

Daily Weather History Graph

Search for Another Location

Airport or City:

Trip Planner

Search our weather history database for the weather conditions in past years. The results will help you decide how hot, cold, wet, or windy it might be!

Date:

Astronomy

Dec. 17, 2010 Rise Set
Actual Time 7:36 AM CST 4:44 PM CST
Civil Twilight 7:05 AM CST 5:16 PM CST
Nautical Twilight 6:29 AM CST 5:51 PM CST
Astronomical Twilight 5:55 AM CST 6:25 PM CST
Moon 1:52 PM CST (12/17) 3:54 AM CST (12/17)
Length of Visible Light 10h 11m
Length of Day
9h 07m
Waxing Gibbous, 86% of the Moon is Illuminated
Dec 17
Waxing Gibbous
Dec 21
Full
Dec 27
Last Quarter
Jan 4
New
Jan 12
First Quarter

Hourly Weather History & Observations

Time (CST) Temp. Windchill Dew Point Humidity Pressure Visibility Wind Dir Wind Speed Gust Speed Precip Events Conditions
12:53 AM 3.0 °F -9.3 °F 1.0 °F 91% 30.13 in 5.0 mi West 6.9 mph - N/A   Clear
1:53 AM 5.0 °F -6.9 °F 1.9 °F 87% 30.14 in 5.0 mi WNW 6.9 mph - N/A   Clear
2:53 AM 3.9 °F -8.2 °F 1.0 °F 88% 30.16 in 5.0 mi West 6.9 mph - N/A   Clear
3:53 AM 9.0 °F 0.6 °F 5.0 °F 84% 30.15 in 6.0 mi WSW 4.6 mph - N/A   Overcast
4:53 AM 10.9 °F 1.4 °F 7.0 °F 84% 30.15 in 7.0 mi WNW 5.8 mph - N/A   Partly Cloudy
5:53 AM 5.0 °F -6.9 °F 1.9 °F 87% 30.17 in 5.0 mi West 6.9 mph - N/A   Clear
6:53 AM 1.9 °F -11.8 °F -0.9 °F 88% 30.18 in 5.0 mi West 8.1 mph - N/A   Clear
7:53 AM 3.9 °F -10.4 °F 1.0 °F 88% 30.19 in 4.0 mi West 9.2 mph - N/A   Clear
8:53 AM 8.1 °F -2.0 °F 3.9 °F 83% 30.21 in 4.0 mi West 5.8 mph - N/A   Clear
9:53 AM 10.9 °F -2.6 °F 6.1 °F 81% 30.23 in 4.0 mi West 10.4 mph - N/A   Haze
10:53 AM 14.0 °F 2.9 °F 9.0 °F 80% 30.23 in 6.0 mi West 8.1 mph - N/A   Haze
11:53 AM 17.1 °F 5.0 °F 10.0 °F 74% 30.21 in 7.0 mi West 10.4 mph - N/A   Scattered Clouds
12:53 PM 19.9 °F 6.7 °F 12.0 °F 71% 30.19 in 9.0 mi WNW 13.8 mph 23.0 mph N/A   Clear
1:53 PM 21.0 °F 8.1 °F 12.9 °F 71% 30.20 in 9.0 mi West 13.8 mph - N/A   Clear
3:53 PM 21.0 °F 7.1 °F 14.0 °F 74% 30.20 in 7.0 mi WNW 16.1 mph - N/A   Clear
4:19 PM 21.2 °F 9.5 °F 15.8 °F 80% 30.16 in 6.0 mi West 11.5 mph - N/A   Haze
4:31 PM 21.2 °F 10.1 °F 15.8 °F 80% 30.15 in 6.0 mi West 10.4 mph - N/A   Haze
4:53 PM 21.9 °F 10.4 °F 15.1 °F 75% 30.20 in 7.0 mi WNW 11.5 mph - N/A   Clear
5:53 PM 21.0 °F 8.6 °F 14.0 °F 74% 30.20 in 8.0 mi WNW 12.7 mph - N/A   Clear
6:53 PM 12.9 °F 2.6 °F 9.0 °F 84% 30.20 in 7.0 mi West 6.9 mph - N/A   Clear
7:53 PM 12.0 °F -0.4 °F 8.1 °F 84% 30.20 in 6.0 mi WSW 9.2 mph - N/A   Clear
8:53 PM 12.0 °F -1.3 °F 8.1 °F 84% 30.19 in 7.0 mi WSW 10.4 mph - N/A   Clear
9:53 PM 10.9 °F -0.8 °F 8.1 °F 88% 30.18 in 6.0 mi West 8.1 mph - N/A   Clear
10:53 PM 14.0 °F 5.1 °F 10.9 °F 88% 30.18 in 7.0 mi West 5.8 mph - N/A   Mostly Cloudy
11:33 PM 17.6 °F 10.7 °F 12.2 °F 79% 30.13 in 7.0 mi WNW 4.6 mph - N/A   Overcast
11:53 PM 19.0 °F 10.0 °F 14.0 °F 81% 30.17 in 7.0 mi WNW 6.9 mph - N/A   Mostly Cloudy